Weather History for KGPI - July, 2012

Change the Weather History Date:

Tuesday, July 24, 2012

  Actual Average Record
Temperature  
Mean Temperature 58 °F 66 °F  
Max Temperature 76 °F 84 °F 96 °F (2003)
Min Temperature 40 °F 49 °F 37 °F (1960)
Degree Days  
Heating Degree Days 7 2  
Month to date heating degree days 38 68  
Since 1 June heating degree days 287 284  
Since 1 July heating degree days 38 68  
Cooling Degree Days 0 3  
Month to date cooling degree days 95 46  
Year to date cooling degree days 116 62  
Since 1 June cooling degree days 116 59  
Growing Degree Days 8 (Base 50)    
Moisture  
Dew Point 45 °F    
Average Humidity 66    
Maximum Humidity 93    
Minimum Humidity 38    
Precipitation  
Precipitation 0.00 in 0.04 in 0.48 in (1925)
Month to date precipitation 0.72 1.23  
Year to date precipitation 14.19 10.40  
Snow  
Snow 0.00 in - - ()
Month to date snowfall 0.0  
Year to date snowfall 25.1  
Since 1 July snowfall 0.0  
Snow Depth 0.00 in    
Sea Level Pressure  
Sea Level Pressure 30.00 in    
Wind  
Wind Speed 5 mph (SSW)    
Max Wind Speed 16 mph    
Max Gust Speed 22 mph    
Visibility 10 miles    
Events      
T = Trace of Precipitation, MM = Missing Value Source: NWS Daily Summary

Daily Weather History Graph

Daily Weather History Graph

Search for Another Location

Airport or City:

Trip Planner

Search our weather history database for the weather conditions in past years. The results will help you decide how hot, cold, wet, or windy it might be!

Date:

Astronomy

Jul. 24, 2012 Rise Set
Actual Time 6:02 AM MDT 9:23 PM MDT
Civil Twilight 5:24 AM MDT 10:01 PM MDT
Nautical Twilight 4:34 AM MDT 10:51 PM MDT
Astronomical Twilight 3:28 AM MDT 11:55 PM MDT
Moon 12:40 PM MDT (7/24) 11:36 PM MDT (7/24)
Length of Visible Light 16h 36m
Length of Day
15h 20m
Waxing Crescent, 32% of the Moon is Illuminated
Jul 24
Waxing Crescent
Jul 26
First Quarter
Aug 1
Full
Aug 9
Last Quarter
Aug 17
New

Hourly Weather History & Observations

Time (MDT) Temp. Windchill Dew Point Humidity Pressure Visibility Wind Dir Wind Speed Gust Speed Precip Events Conditions
12:55 AM 52.0 °F - 41.0 °F 66% 30.06 in 10.0 mi WNW 5.8 mph - N/A   Clear
2:55 AM 48.9 °F - 41.0 °F 74% 30.05 in 10.0 mi WSW 8.1 mph - N/A   Clear
3:55 AM 44.1 °F - 39.9 °F 85% 30.05 in 10.0 mi Calm Calm - N/A   Clear
4:55 AM 43.0 °F - 39.9 °F 89% 30.05 in 10.0 mi Calm Calm - N/A   Clear
5:55 AM 41.0 °F 38.0 °F 39.0 °F 93% 30.06 in 10.0 mi NW 4.6 mph - N/A   Clear
6:55 AM 44.1 °F - 41.0 °F 89% 30.05 in 10.0 mi Calm Calm - N/A   Scattered Clouds
7:55 AM 51.1 °F - 43.0 °F 74% 30.05 in 10.0 mi SW 4.6 mph - N/A   Clear
8:55 AM 57.0 °F - 44.1 °F 62% 30.04 in 10.0 mi SSW 5.8 mph - N/A   Clear
9:55 AM 63.0 °F - 46.9 °F 56% 30.02 in 10.0 mi SSE 13.8 mph - N/A   Clear
10:55 AM 66.9 °F - 45.0 °F 45% 30.00 in 10.0 mi South 8.1 mph - N/A   Partly Cloudy
11:55 AM 71.1 °F - 45.0 °F 39% 29.99 in 10.0 mi SSE 13.8 mph 21.9 mph N/A   Mostly Cloudy
12:55 PM 70.0 °F - 46.0 °F 42% 29.97 in 10.0 mi SSE 8.1 mph - N/A   Mostly Cloudy
1:55 PM 70.0 °F - 46.0 °F 42% 29.98 in 10.0 mi SE 11.5 mph - N/A   Overcast
2:55 PM 71.1 °F - 46.0 °F 41% 29.97 in 10.0 mi SSE 10.4 mph - N/A   Overcast
3:55 PM 72.0 °F - 48.9 °F 44% 29.96 in 10.0 mi SSE 13.8 mph - N/A   Overcast
4:55 PM 73.0 °F - 46.9 °F 39% 29.96 in 10.0 mi Calm Calm - N/A   Overcast
5:55 PM 73.0 °F - 48.0 °F 41% 29.96 in 10.0 mi East 3.5 mph - N/A   Overcast
6:55 PM 75.9 °F - 48.0 °F 37% 29.95 in 10.0 mi NW 3.5 mph - N/A   Overcast
7:55 PM 72.0 °F - 50.0 °F 46% 29.94 in 10.0 mi WNW 5.8 mph - N/A   Overcast
8:55 PM 70.0 °F - 48.0 °F 46% 29.94 in 10.0 mi Calm Calm - N/A   Overcast
9:55 PM 62.1 °F - 50.0 °F 65% 29.96 in 10.0 mi West 3.5 mph - N/A   Scattered Clouds
10:55 PM 57.0 °F - 50.0 °F 77% 29.97 in 10.0 mi Calm Calm - N/A   Clear
11:55 PM 53.1 °F - 48.9 °F 86% 29.98 in 10.0 mi Calm Calm - N/A   Clear